Time,TemperatureF,DewpointF,PressureIn,WindDirection,WindDirectionDegrees,WindSpeedMPH,WindSpeedGustMPH,Humidity,HourlyPrecipIn,Conditions,Clouds,dailyrainin,SoftwareType,DateUTC
2013-07-31 00:04:00,63.8,48.0,30.06,NW,311,2.0,5.0,57,0.00,,,0.00,weatherlink.com 1.10,2013-07-31 06:04:00,
2013-07-31 00:19:00,62.7,48.0,30.06,NW,320,0.0,3.0,60,0.00,,,0.00,weatherlink.com 1.10,2013-07-31 06:19:00,
2013-07-31 00:34:00,62.2,47.0,30.06,NW,316,0.0,0.0,59,0.00,,,0.00,weatherlink.com 1.10,2013-07-31 06:34:00,
2013-07-31 00:49:00,60.7,47.0,30.06,NW,309,0.0,5.0,61,0.00,,,0.00,weatherlink.com 1.10,2013-07-31 06:49:00,
2013-07-31 01:04:00,59.6,47.0,30.06,West,278,3.0,5.0,63,0.00,,,0.00,weatherlink.com 1.10,2013-07-31 07:04:00,
2013-07-31 01:19:00,59.1,47.0,30.06,West,271,5.0,5.0,64,0.00,,,0.00,weatherlink.com 1.10,2013-07-31 07:19:00,
2013-07-31 01:34:00,58.9,47.0,30.06,WNW,289,0.0,2.0,64,0.00,,,0.00,weatherlink.com 1.10,2013-07-31 07:34:00,
2013-07-31 01:50:00,57.8,46.0,30.06,WNW,294,0.0,0.0,66,0.00,,,0.00,weatherlink.com 1.10,2013-07-31 07:50:00,
2013-07-31 02:05:00,56.6,46.0,30.06,WNW,290,0.0,0.0,68,0.00,,,0.00,weatherlink.com 1.10,2013-07-31 08:05:00,
2013-07-31 02:20:00,56.3,46.0,30.06,NW,309,0.0,0.0,69,0.00,,,0.00,weatherlink.com 1.10,2013-07-31 08:20:00,
2013-07-31 02:50:00,54.9,46.0,30.07,NW,307,0.0,5.0,72,0.00,,,0.00,weatherlink.com 1.10,2013-07-31 08:50:00,
2013-07-31 03:05:00,54.3,46.0,30.07,WNW,296,1.0,5.0,74,0.00,,,0.00,weatherlink.com 1.10,2013-07-31 09:05:00,
2013-07-31 03:20:00,53.2,46.0,30.07,NW,315,0.0,4.0,76,0.00,,,0.00,weatherlink.com 1.10,2013-07-31 09:20:00,
2013-07-31 03:35:00,52.9,45.0,30.07,WNW,297,0.0,3.0,75,0.00,,,0.00,weatherlink.com 1.10,2013-07-31 09:35:00,
2013-07-31 03:50:00,52.5,45.0,30.07,WNW,296,0.0,0.0,77,0.00,,,0.00,weatherlink.com 1.10,2013-07-31 09:50:00,
2013-07-31 04:05:00,52.6,45.0,30.07,WNW,289,0.0,0.0,76,0.00,,,0.00,weatherlink.com 1.10,2013-07-31 10:05:00,
2013-07-31 04:20:00,52.3,45.0,30.07,West,279,0.0,0.0,77,0.00,,,0.00,weatherlink.com 1.10,2013-07-31 10:20:00,
2013-07-31 04:35:00,51.6,45.0,30.08,West,280,0.0,0.0,79,0.00,,,0.00,weatherlink.com 1.10,2013-07-31 10:35:00,
2013-07-31 04:50:00,51.2,45.0,30.08,West,280,0.0,0.0,79,0.00,,,0.00,weatherlink.com 1.10,2013-07-31 10:50:00,
2013-07-31 05:05:00,50.9,44.0,30.08,West,280,0.0,0.0,78,0.00,,,0.00,weatherlink.com 1.10,2013-07-31 11:05:00,
2013-07-31 05:20:00,50.1,45.0,30.08,West,281,0.0,0.0,81,0.00,,,0.00,weatherlink.com 1.10,2013-07-31 11:20:00,
2013-07-31 05:35:00,50.0,45.0,30.09,West,281,0.0,0.0,82,0.00,,,0.00,weatherlink.com 1.10,2013-07-31 11:35:00,
2013-07-31 05:50:00,49.9,45.0,30.09,West,281,0.0,0.0,82,0.00,,,0.00,weatherlink.com 1.10,2013-07-31 11:50:00,
2013-07-31 06:05:00,49.6,45.0,30.09,West,281,0.0,0.0,83,0.00,,,0.00,weatherlink.com 1.10,2013-07-31 12:05:00,
2013-07-31 06:20:00,49.3,45.0,30.09,West,281,0.0,0.0,84,0.00,,,0.00,weatherlink.com 1.10,2013-07-31 12:20:00,
2013-07-31 06:35:00,48.9,45.0,30.09,West,281,0.0,0.0,85,0.00,,,0.00,weatherlink.com 1.10,2013-07-31 12:35:00,
2013-07-31 06:50:00,48.3,44.0,30.09,West,281,0.0,0.0,86,0.00,,,0.00,weatherlink.com 1.10,2013-07-31 12:50:00,
2013-07-31 07:05:00,48.7,44.0,30.09,West,281,0.0,0.0,85,0.00,,,0.00,weatherlink.com 1.10,2013-07-31 13:05:00,
2013-07-31 07:20:00,50.0,45.0,30.09,West,281,0.0,0.0,83,0.00,,,0.00,weatherlink.com 1.10,2013-07-31 13:20:00,
2013-07-31 07:35:00,52.2,47.0,30.09,West,281,0.0,0.0,81,0.00,,,0.00,weatherlink.com 1.10,2013-07-31 13:35:00,
2013-07-31 07:50:00,53.9,47.0,30.08,West,281,0.0,0.0,78,0.00,,,0.00,weatherlink.com 1.10,2013-07-31 13:50:00,
2013-07-31 08:05:00,55.7,48.0,30.09,West,281,0.0,0.0,75,0.00,,,0.00,weatherlink.com 1.10,2013-07-31 14:05:00,
2013-07-31 08:20:00,57.2,47.0,30.08,WNW,282,0.0,0.0,69,0.00,,,0.00,weatherlink.com 1.10,2013-07-31 14:20:00,
2013-07-31 08:35:00,57.4,47.0,30.08,WNW,286,0.0,0.0,69,0.00,,,0.00,weatherlink.com 1.10,2013-07-31 14:35:00,
2013-07-31 08:50:00,59.8,50.0,30.08,SSE,147,0.0,0.0,69,0.00,,,0.00,weatherlink.com 1.10,2013-07-31 14:50:00,
2013-07-31 09:05:00,61.5,50.0,30.07,SSE,152,0.0,0.0,66,0.00,,,0.00,weatherlink.com 1.10,2013-07-31 15:05:00,
2013-07-31 09:20:00,63.9,49.0,30.07,North,5,0.0,1.0,59,0.00,,,0.00,weatherlink.com 1.10,2013-07-31 15:20:00,
2013-07-31 09:36:00,65.4,50.0,30.06,SSE,148,0.0,0.0,58,0.00,,,0.00,weatherlink.com 1.10,2013-07-31 15:36:00,
2013-07-31 09:51:00,66.4,50.0,30.06,SSE,152,0.0,0.0,55,0.00,,,0.00,weatherlink.com 1.10,2013-07-31 15:51:00,
2013-07-31 10:06:00,67.2,52.0,30.05,SE,132,3.0,3.0,58,0.00,,,0.00,weatherlink.com 1.10,2013-07-31 16:06:00,
2013-07-31 10:21:00,68.8,51.0,30.05,SE,135,0.0,5.0,53,0.00,,,0.00,weatherlink.com 1.10,2013-07-31 16:21:00,
2013-07-31 10:36:00,70.9,52.0,30.04,South,184,1.0,6.0,51,0.00,,,0.00,weatherlink.com 1.10,2013-07-31 16:36:00,
2013-07-31 10:51:00,72.3,51.0,30.04,SSE,166,0.0,8.0,48,0.00,,,0.00,weatherlink.com 1.10,2013-07-31 16:51:00,
2013-07-31 11:06:00,73.7,52.0,30.03,SSE,157,3.0,11.0,47,0.00,,,0.00,weatherlink.com 1.10,2013-07-31 17:06:00,
2013-07-31 11:21:00,75.3,50.0,30.02,SSE,159,6.0,12.0,41,0.00,,,0.00,weatherlink.com 1.10,2013-07-31 17:21:00,
2013-07-31 11:36:00,76.5,50.0,30.01,SSE,160,4.0,10.0,40,0.00,,,0.00,weatherlink.com 1.10,2013-07-31 17:36:00,
2013-07-31 11:51:00,77.9,50.0,30.00,South,172,0.0,10.0,37,0.00,,,0.00,weatherlink.com 1.10,2013-07-31 17:51:00,
2013-07-31 12:06:00,78.5,50.0,30.00,SSE,160,0.0,4.0,37,0.00,,,0.00,weatherlink.com 1.10,2013-07-31 18:06:00,
2013-07-31 12:21:00,80.3,49.0,29.99,SSW,213,1.0,8.0,33,0.00,,,0.00,weatherlink.com 1.10,2013-07-31 18:21:00,
2013-07-31 12:36:00,81.1,49.0,29.98,SE,143,0.0,8.0,32,0.00,,,0.00,weatherlink.com 1.10,2013-07-31 18:36:00,
2013-07-31 12:51:00,81.5,48.0,29.97,SSE,158,0.0,8.0,31,0.00,,,0.00,weatherlink.com 1.10,2013-07-31 18:51:00,
2013-07-31 13:06:00,82.2,48.0,29.96,SE,128,0.0,6.0,30,0.00,,,0.00,weatherlink.com 1.10,2013-07-31 19:06:00,
2013-07-31 13:21:00,84.0,46.0,29.95,East,83,5.0,7.0,26,0.00,,,0.00,weatherlink.com 1.10,2013-07-31 19:21:00,
2013-07-31 13:36:00,84.4,45.0,29.94,SSE,167,1.0,9.0,25,0.00,,,0.00,weatherlink.com 1.10,2013-07-31 19:36:00,
2013-07-31 13:52:00,85.2,46.0,29.94,SE,127,0.0,7.0,25,0.00,,,0.00,weatherlink.com 1.10,2013-07-31 19:52:00,
2013-07-31 14:07:00,85.5,43.0,29.93,ESE,103,4.0,8.0,22,0.00,,,0.00,weatherlink.com 1.10,2013-07-31 20:07:00,
2013-07-31 14:22:00,87.1,45.0,29.92,ENE,69,0.0,10.0,23,0.00,,,0.00,weatherlink.com 1.10,2013-07-31 20:22:00,
2013-07-31 14:37:00,88.1,45.0,29.92,NNW,329,6.0,9.0,22,0.00,,,0.00,weatherlink.com 1.10,2013-07-31 20:37:00,
2013-07-31 14:52:00,88.7,43.0,29.91,NNE,19,4.0,7.0,20,0.00,,,0.00,weatherlink.com 1.10,2013-07-31 20:52:00,
2013-07-31 15:07:00,89.8,41.0,29.89,NE,36,6.0,11.0,18,0.00,,,0.00,weatherlink.com 1.10,2013-07-31 21:07:00,
2013-07-31 15:22:00,89.9,40.0,29.89,NE,46,8.0,10.0,17,0.00,,,0.00,weatherlink.com 1.10,2013-07-31 21:22:00,
2013-07-31 15:37:00,89.0,40.0,29.88,North,5,1.0,8.0,18,0.00,,,0.00,weatherlink.com 1.10,2013-07-31 21:37:00,
2013-07-31 15:52:00,89.9,40.0,29.88,East,90,0.0,7.0,17,0.00,,,0.00,weatherlink.com 1.10,2013-07-31 21:52:00,
2013-07-31 16:07:00,89.9,41.0,29.87,ESE,104,3.0,8.0,18,0.00,,,0.00,weatherlink.com 1.10,2013-07-31 22:07:00,
2013-07-31 16:22:00,89.9,38.0,29.86,NE,41,5.0,6.0,16,0.00,,,0.00,weatherlink.com 1.10,2013-07-31 22:22:00,
2013-07-31 16:37:00,90.4,38.0,29.86,North,5,7.0,11.0,16,0.00,,,0.00,weatherlink.com 1.10,2013-07-31 22:37:00,
2013-07-31 16:52:00,89.9,40.0,29.86,NNE,12,8.0,13.0,17,0.00,,,0.00,weatherlink.com 1.10,2013-07-31 22:52:00,
2013-07-31 17:07:00,89.2,40.0,29.85,NNW,348,1.0,13.0,18,0.00,,,0.00,weatherlink.com 1.10,2013-07-31 23:07:00,
2013-07-31 17:22:00,88.6,40.0,29.85,North,11,3.0,15.0,18,0.00,,,0.00,weatherlink.com 1.10,2013-07-31 23:22:00,
2013-07-31 17:37:00,86.5,41.0,29.85,NNW,342,6.0,14.0,20,0.00,,,0.00,weatherlink.com 1.10,2013-07-31 23:37:00,
2013-07-31 17:52:00,85.7,41.0,29.85,WNW,303,5.0,13.0,21,0.00,,,0.00,weatherlink.com 1.10,2013-07-31 23:52:00,
2013-07-31 18:08:00,86.2,41.0,29.84,NE,43,3.0,16.0,20,0.00,,,0.00,weatherlink.com 1.10,2013-08-01 00:08:00,
2013-07-31 18:22:00,85.2,41.0,29.84,NNW,342,10.0,15.0,21,0.00,,,0.00,weatherlink.com 1.10,2013-08-01 00:22:00,
2013-07-31 18:37:00,84.2,40.0,29.85,NNE,15,9.0,17.0,21,0.00,,,0.00,weatherlink.com 1.10,2013-08-01 00:37:00,
2013-07-31 18:52:00,83.5,41.0,29.84,North,360,5.0,13.0,22,0.00,,,0.00,weatherlink.com 1.10,2013-08-01 00:52:00,
2013-07-31 19:07:00,82.9,40.0,29.85,NNW,327,8.0,13.0,22,0.00,,,0.00,weatherlink.com 1.10,2013-08-01 01:07:00,
2013-07-31 19:22:00,82.2,41.0,29.85,NNW,346,11.0,13.0,23,0.00,,,0.00,weatherlink.com 1.10,2013-08-01 01:22:00,
2013-07-31 19:37:00,81.4,41.0,29.86,North,355,10.0,12.0,24,0.00,,,0.00,weatherlink.com 1.10,2013-08-01 01:37:00,
2013-07-31 19:52:00,80.7,41.0,29.87,NNW,336,7.0,10.0,24,0.00,,,0.00,weatherlink.com 1.10,2013-08-01 01:52:00,
2013-07-31 20:07:00,80.2,40.0,29.88,NW,322,1.0,11.0,24,0.00,,,0.00,weatherlink.com 1.10,2013-08-01 02:07:00,
2013-07-31 20:22:00,79.7,40.0,29.88,NNW,340,4.0,7.0,24,0.00,,,0.00,weatherlink.com 1.10,2013-08-01 02:22:00,
2013-07-31 20:37:00,79.1,40.0,29.87,NNE,14,0.0,5.0,25,0.00,,,0.00,weatherlink.com 1.10,2013-08-01 02:37:00,
2013-07-31 20:52:00,78.1,40.0,29.87,NW,312,1.0,6.0,26,0.00,,,0.00,weatherlink.com 1.10,2013-08-01 02:52:00,
2013-07-31 21:07:00,77.3,40.0,29.87,NNE,27,0.0,5.0,26,0.00,,,0.00,weatherlink.com 1.10,2013-08-01 03:07:00,
2013-07-31 21:22:00,76.3,41.0,29.87,NW,321,1.0,2.0,28,0.00,,,0.00,weatherlink.com 1.10,2013-08-01 03:22:00,
2013-07-31 21:37:00,75.6,41.0,29.88,West,280,2.0,3.0,29,0.00,,,0.00,weatherlink.com 1.10,2013-08-01 03:37:00,
2013-07-31 21:52:00,75.1,41.0,29.88,WNW,285,1.0,7.0,29,0.00,,,0.00,weatherlink.com 1.10,2013-08-01 03:52:00,
2013-07-31 22:07:00,75.6,39.0,29.88,NW,312,2.0,4.0,27,0.00,,,0.00,weatherlink.com 1.10,2013-08-01 04:07:00,
2013-07-31 22:22:00,75.8,39.0,29.88,WNW,292,1.0,6.0,27,0.00,,,0.00,weatherlink.com 1.10,2013-08-01 04:22:00,
2013-07-31 22:37:00,74.5,39.0,29.88,NNW,330,3.0,5.0,28,0.00,,,0.00,weatherlink.com 1.10,2013-08-01 04:37:00,
2013-07-31 22:52:00,74.0,41.0,29.88,NNW,331,2.0,6.0,30,0.00,,,0.00,weatherlink.com 1.10,2013-08-01 04:52:00,
2013-07-31 23:07:00,73.2,41.0,29.87,WNW,302,0.0,4.0,31,0.00,,,0.00,weatherlink.com 1.10,2013-08-01 05:07:00,
2013-07-31 23:22:00,72.8,43.0,29.88,West,261,0.0,3.0,34,0.00,,,0.00,weatherlink.com 1.10,2013-08-01 05:22:00,
2013-07-31 23:37:00,72.7,41.0,29.88,North,5,1.0,2.0,32,0.00,,,0.00,weatherlink.com 1.10,2013-08-01 05:37:00,
2013-07-31 23:52:00,73.1,41.0,29.88,WNW,300,0.0,3.0,32,0.00,,,0.00,weatherlink.com 1.10,2013-08-01 05:52:00,